Location: Shenandoah County Park
(38.9356°N, 78.4524°W)
Time: 07:27:04
(UTC-05:00)

Envisat - Pass Details

Date: 07 October 2023
Orbit: 762 x 764 km, 98.3° (Epoch: 30 November)

Event Time Altitude Azimuth Distance (km) Brightness Sun altitude
Rises 04:37:47 0° 16° (NNE) 3,237 6.7 -31.0°
Reaches altitude 10° 04:40:07 10° 19° (NNE) 2,307 5.9 -30.6°
Enters shadow 04:44:57 63° 86° (E) 853 3.3 -29.7°
